weather.gov     
National Weather Service

Regional Weather Roundup
NWS Homepage
This page is being discontinued on March 12, 2014.
The same data is available at this site. Please update your bookmarks.
Thank you, and we apologize for the inconvenience.
Please send an email to SR-SRH.Webmaster@noaa.gov with any concerns.


Current Version
Previous Version:    01  02  03  04  05  06  07  08  09  10  11  12  13  14  15  16  17  18  19  20  21  22  23  24  25  26  
[Printable]
292
ASUS44 KLCH 312110
RWRLCH
RWRLCH
REGIONAL WEATHER ROUNDUP
NATIONAL WEATHER SERVICE LAKE CHARLES LA
400 PM CDT FRI OCT 31 2014

Note: "fair" indicates few or no clouds below 12,000 feet with no
significant weather and/or obstructions to visibility.


ACROSS SOUTHEAST TEXAS

CITY           SKY/WX    TMP DP  RH WIND       PRES   REMARKS
BEAUMONT       SUNNY     77  43  29 N14       30.10F
BEAUMONT CITY    N/A     75  43  31 NW16      30.12S
ORANGE         CLEAR     74  41  30 N10G16    30.13R
JASPER         SUNNY     72  43  35 NW9G20    30.17R
$$

ACROSS CENTRAL LOUISIANA

CITY           SKY/WX    TMP DP  RH WIND       PRES   REMARKS
LEESVILLE      SUNNY     71  45  38 NW10      30.12S
FULLERTON      NOT AVBL
ALEXANDRIA INT SUNNY     71  46  40 N14G21    30.10S
ESLER FIELD    SUNNY     71  47  42 N9G18     30.11S
DERIDDER         N/A     72  44  36 NW12G17   30.14S
OAKDALE        CLEAR     72  45  38 N14G20    30.11R
OPELOUSAS        N/A     72  46  39 N13G22    30.09R
$$

ACROSS SOUTHWEST AND SOUTH CENTRAL LOUISIANA

CITY           SKY/WX    TMP DP  RH WIND       PRES   REMARKS
SULPHUR        CLEAR     75  42  30 N15G22    30.11S
LAKE CHARLES   SUNNY     75  44  33 NW16G25   30.10R
CHENNAULT INT  NOT AVBL
CAMERON PHI    CLEAR     75  45  33 N14       30.12S
DEQUINCY         N/A     72  45  38 N12G20    30.12R
JENNINGS         N/A     73  45  36 N13G24    30.09R
LAFAYETTE      SUNNY     74  42  31 N20       30.08R
NEW IBERIA     SUNNY     75  43  31 N20G25    30.07R
ABBEVILLE        N/A     74  44  34 NW15G22   30.07R
PATTERSON      SUNNY     73  46  38 N14G20    30.07R
SALT POINT       N/A     76  44  32 N12G23    30.03S
$$

SELECTED SITES ACROSS THE REGION

CITY           SKY/WX    TMP DP  RH WIND       PRES   REMARKS
HOUSTON BUSH   MOSUNNY   78  40  25 N14G23    30.14F
HOUSTON HOBBY  MOSUNNY   77  42  28 NW14      30.13F
GALVESTON      MOSUNNY   77  47  34 N18       30.13S
COLLEGE STAT   SUNNY     74  40  29 N18G26    30.20F
CONROE         SUNNY     75  40  28 N16G22    30.17S
HUNTSVILLE     SUNNY     72  43  35 NW9G20    30.19S
LUFKIN         SUNNY     74  43  32 N9        30.18S
SHREVEPORT     MOSUNNY   69  45  41 N13G21    30.18S
MONROE         PTSUNNY   69  44  40 N16       30.15R
NATCHEZ MS     PTSUNNY   68  46  45 N16G24    30.10S
BATON ROUGE    SUNNY     72  44  36 N15G24    30.06R
N.O. INTL ARPT MOSUNNY   74  44  34 NW21G26   30.01R
SLIDELL        SUNNY     74  43  32 N14G24    29.99R
$$

MARINE REPORTS

STATION/POSITION TIME  TEMP    WIND        PRES    VSBY  WAVE
                       AIR SEA DIR/SP/G                  HT/PER
                 (UTC) (F)     (DEG/KT/KT) (MB)    (MI)  (FT/S)
BUOY 30 S HIGH I 2100   74 76  340/ 14/ 17 1019.4R         2/ 4
SEA RIM ST PARK  2100   74     340/ 16/ 22 1020.0S
PORT ARTHUR      2100      75  330/  9/ 17 1019.5S
SABINE PASS N    2100   74 73  350/ 14/ 19 1019.6F
TEXAS POINT      NOT AVBL
CALCASIEU PASS   2100   72 72  360/ 16/ 21   N/A
LK CHARLES BEACH 2100   72 76              1019.3R
MARSH ISLAND     NOT AVBL
FRESH WATER LOCK 2100   74 74  320/ 13/ 22 1018.0R
AMERADA PASS     2100   72 69  320/  9/ 19 1016.9S
$$




U.S. Dept. of Commerce
NOAA National Weather Service
1325 East West Highway
Silver Spring, MD 20910
E-mail: w-nws.webmaster@noaa.gov
Page last modified: May 16, 2007
NATIONAL WEATHER SERVICE: for Safety, for Work, for Fun - FOR LIFE